Time,TemperatureF,DewpointF,PressureIn,WindDirection,WindDirectionDegrees,WindSpeedMPH,WindSpeedGustMPH,Humidity,HourlyPrecipIn,Conditions,Clouds,dailyrainin,SoftwareType,DateUTC
2013-04-28 00:00:00,69.9,41.0,30.08,WSW,257,4.0,20.0,35,0.00,,---,0.00,VWS V14.01,2013-04-28 07:00:00,
2013-04-28 00:01:00,69.8,40.9,30.08,West,264,7.0,18.0,35,0.00,,---,0.00,VWS V14.01,2013-04-28 07:01:00,
2013-04-28 00:06:00,70.0,41.1,30.07,West,276,10.0,18.0,35,0.00,,---,0.00,VWS V14.01,2013-04-28 07:06:00,
2013-04-28 00:11:00,70.2,41.3,30.08,NW,305,13.0,20.0,35,0.00,,---,0.00,VWS V14.01,2013-04-28 07:11:00,
2013-04-28 00:16:00,70.2,41.3,30.08,West,276,5.0,20.0,35,0.00,,---,0.00,VWS V14.01,2013-04-28 07:16:00,
2013-04-28 00:21:00,70.0,41.1,30.07,WNW,300,9.0,20.0,35,0.00,,---,0.00,VWS V14.01,2013-04-28 07:21:00,
2013-04-28 00:26:00,70.0,41.1,30.07,West,280,10.0,20.0,35,0.00,,---,0.00,VWS V14.01,2013-04-28 07:26:00,
2013-04-28 00:30:00,70.1,41.2,30.07,WSW,252,6.0,20.0,35,0.00,,---,0.00,VWS V14.01,2013-04-28 07:30:00,
2013-04-28 00:31:00,69.9,40.3,30.07,WSW,250,11.0,16.0,34,0.00,,---,0.00,VWS V14.01,2013-04-28 07:31:00,
2013-04-28 00:36:00,69.8,40.2,30.07,WNW,285,7.0,16.0,34,0.00,,---,0.00,VWS V14.01,2013-04-28 07:36:00,
2013-04-28 00:41:00,69.9,41.0,30.07,WNW,290,9.0,16.0,35,0.00,,---,0.00,VWS V14.01,2013-04-28 07:41:00,
2013-04-28 00:46:00,69.7,41.6,30.07,NW,317,9.0,16.0,36,0.00,,---,0.00,VWS V14.01,2013-04-28 07:46:00,
2013-04-28 00:51:00,69.9,41.0,30.06,West,274,12.0,17.0,35,0.00,,---,0.00,VWS V14.01,2013-04-28 07:51:00,
2013-04-28 00:56:00,70.0,41.1,30.06,West,259,18.0,18.0,35,0.00,,---,0.00,VWS V14.01,2013-04-28 07:56:00,
2013-04-28 01:00:00,70.0,41.1,30.06,WNW,300,9.0,18.0,35,0.00,,---,0.00,VWS V14.01,2013-04-28 08:00:00,
2013-04-28 01:01:00,70.0,41.1,30.06,WNW,283,9.0,19.0,35,0.00,,---,0.00,VWS V14.01,2013-04-28 08:01:00,
2013-04-28 01:06:00,69.9,41.8,30.06,West,267,9.0,23.0,36,0.00,,---,0.00,VWS V14.01,2013-04-28 08:06:00,
2013-04-28 01:11:00,69.9,41.0,30.06,West,271,7.0,23.0,35,0.00,,---,0.00,VWS V14.01,2013-04-28 08:11:00,
2013-04-28 01:16:00,69.9,41.8,30.06,WSW,248,6.0,23.0,36,0.00,,---,0.00,VWS V14.01,2013-04-28 08:16:00,
2013-04-28 01:21:00,69.7,41.6,30.06,WNW,291,10.0,23.0,36,0.00,,---,0.00,VWS V14.01,2013-04-28 08:21:00,
2013-04-28 01:26:00,69.4,42.0,30.06,WNW,291,9.0,23.0,37,0.00,,---,0.00,VWS V14.01,2013-04-28 08:26:00,
2013-04-28 01:30:00,69.5,42.1,30.06,WNW,286,8.0,23.0,37,0.00,,---,0.00,VWS V14.01,2013-04-28 08:30:00,
2013-04-28 01:31:00,69.5,42.1,30.05,WNW,293,6.0,16.0,37,0.00,,---,0.00,VWS V14.01,2013-04-28 08:31:00,
2013-04-28 01:36:00,69.4,42.0,30.05,West,274,10.0,21.0,37,0.00,,---,0.00,VWS V14.01,2013-04-28 08:36:00,
2013-04-28 01:41:00,69.5,42.1,30.05,WSW,239,12.0,21.0,37,0.00,,---,0.00,VWS V14.01,2013-04-28 08:41:00,
2013-04-28 01:46:00,69.6,42.2,30.05,WNW,283,7.0,21.0,37,0.00,,---,0.00,VWS V14.01,2013-04-28 08:46:00,
2013-04-28 01:51:00,69.2,41.8,30.06,WNW,295,14.0,21.0,37,0.00,,---,0.00,VWS V14.01,2013-04-28 08:51:00,
2013-04-28 01:56:00,69.4,42.0,30.05,WNW,285,6.0,24.0,37,0.00,,---,0.00,VWS V14.01,2013-04-28 08:56:00,
2013-04-28 02:00:00,69.2,41.8,30.05,West,264,10.0,24.0,37,0.00,,---,0.00,VWS V14.01,2013-04-28 09:00:00,
2013-04-28 02:01:00,69.3,41.9,30.05,WNW,293,8.0,20.0,37,0.00,,---,0.00,VWS V14.01,2013-04-28 09:01:00,
2013-04-28 02:06:00,69.2,41.8,30.05,West,271,6.0,20.0,37,0.00,,---,0.00,VWS V14.01,2013-04-28 09:06:00,
2013-04-28 02:11:00,69.2,41.1,30.05,NW,319,10.0,25.0,36,0.00,,---,0.00,VWS V14.01,2013-04-28 09:11:00,
2013-04-28 02:16:00,68.9,42.3,30.05,WNW,302,13.0,25.0,38,0.00,,---,0.00,VWS V14.01,2013-04-28 09:16:00,
2013-04-28 02:21:00,68.9,41.6,30.05,NW,316,8.0,25.0,37,0.00,,---,0.00,VWS V14.01,2013-04-28 09:21:00,
2013-04-28 02:26:00,69.0,41.7,30.05,SW,218,7.0,25.0,37,0.00,,---,0.00,VWS V14.01,2013-04-28 09:26:00,
2013-04-28 02:30:00,68.9,41.6,30.04,WNW,288,16.0,25.0,37,0.00,,---,0.00,VWS V14.01,2013-04-28 09:30:00,
2013-04-28 02:31:00,69.1,41.8,30.05,West,273,10.0,22.0,37,0.00,,---,0.00,VWS V14.01,2013-04-28 09:31:00,
2013-04-28 02:36:00,69.1,41.8,30.04,WSW,238,7.0,22.0,37,0.00,,---,0.00,VWS V14.01,2013-04-28 09:36:00,
2013-04-28 02:41:00,69.1,41.8,30.04,WNW,302,7.0,22.0,37,0.00,,---,0.00,VWS V14.01,2013-04-28 09:41:00,
2013-04-28 02:46:00,68.7,41.4,30.04,West,280,8.0,22.0,37,0.00,,---,0.00,VWS V14.01,2013-04-28 09:46:00,
2013-04-28 02:51:00,68.5,41.2,30.04,WSW,245,4.0,22.0,37,0.00,,---,0.00,VWS V14.01,2013-04-28 09:51:00,
2013-04-28 02:56:00,68.5,41.9,30.03,WNW,288,11.0,22.0,38,0.00,,---,0.00,VWS V14.01,2013-04-28 09:56:00,
2013-04-28 03:00:00,68.6,42.0,30.04,WNW,283,8.0,22.0,38,0.00,,---,0.00,VWS V14.01,2013-04-28 10:00:00,
2013-04-28 03:01:00,68.7,41.4,30.04,WNW,289,7.0,16.0,37,0.00,,---,0.00,VWS V14.01,2013-04-28 10:01:00,
2013-04-28 03:06:00,68.7,42.1,30.04,NW,308,7.0,17.0,38,0.00,,---,0.00,VWS V14.01,2013-04-28 10:06:00,
2013-04-28 03:11:00,68.5,41.9,30.03,WNW,293,7.0,17.0,38,0.00,,---,0.00,VWS V14.01,2013-04-28 10:11:00,
2013-04-28 03:16:00,68.4,41.8,30.03,West,274,11.0,17.0,38,0.00,,---,0.00,VWS V14.01,2013-04-28 10:16:00,
2013-04-28 03:21:00,68.3,41.7,30.03,WSW,253,14.0,19.0,38,0.00,,---,0.00,VWS V14.01,2013-04-28 10:21:00,
2013-04-28 03:26:00,68.3,41.0,30.03,WSW,257,14.0,19.0,37,0.00,,---,0.00,VWS V14.01,2013-04-28 10:26:00,
2013-04-28 03:30:00,68.3,41.7,30.03,West,276,10.0,19.0,38,0.00,,---,0.00,VWS V14.01,2013-04-28 10:30:00,
2013-04-28 03:31:00,68.2,41.0,30.02,West,259,12.0,19.0,37,0.00,,---,0.00,VWS V14.01,2013-04-28 10:31:00,
2013-04-28 03:36:00,68.6,40.6,30.03,West,271,10.0,19.0,36,0.00,,---,0.00,VWS V14.01,2013-04-28 10:36:00,
2013-04-28 03:41:00,68.3,42.4,30.02,West,278,9.0,19.0,39,0.00,,---,0.00,VWS V14.01,2013-04-28 10:41:00,
2013-04-28 03:46:00,68.2,41.7,30.02,SW,224,9.0,20.0,38,0.00,,---,0.00,VWS V14.01,2013-04-28 10:46:00,
2013-04-28 03:51:00,68.3,41.7,30.02,NW,308,11.0,20.0,38,0.00,,---,0.00,VWS V14.01,2013-04-28 10:51:00,
2013-04-28 03:56:00,67.9,42.1,30.03,WNW,283,6.0,20.0,39,0.00,,---,0.00,VWS V14.01,2013-04-28 10:56:00,
2013-04-28 04:00:00,67.6,41.8,30.02,West,276,11.0,20.0,39,0.00,,---,0.00,VWS V14.01,2013-04-28 11:00:00,
2013-04-28 04:01:00,67.5,41.7,30.02,West,274,13.0,17.0,39,0.00,,---,0.00,VWS V14.01,2013-04-28 11:01:00,
2013-04-28 04:06:00,67.6,41.8,30.02,WNW,300,13.0,25.0,39,0.00,,---,0.00,VWS V14.01,2013-04-28 11:06:00,
2013-04-28 04:11:00,67.6,41.8,30.02,West,263,13.0,25.0,39,0.00,,---,0.00,VWS V14.01,2013-04-28 11:11:00,
2013-04-28 04:16:00,67.6,41.8,30.02,West,280,11.0,25.0,39,0.00,,---,0.00,VWS V14.01,2013-04-28 11:16:00,
2013-04-28 04:21:00,67.6,42.4,30.03,NW,315,5.0,25.0,40,0.00,,---,0.00,VWS V14.01,2013-04-28 11:21:00,
2013-04-28 04:26:00,67.5,42.3,30.02,WNW,293,8.0,25.0,40,0.00,,---,0.00,VWS V14.01,2013-04-28 11:26:00,
2013-04-28 04:30:00,67.4,41.6,30.02,West,262,5.0,25.0,39,0.00,,---,0.00,VWS V14.01,2013-04-28 11:30:00,
2013-04-28 04:31:00,67.3,42.2,30.02,West,281,9.0,15.0,40,0.00,,---,0.00,VWS V14.01,2013-04-28 11:31:00,
2013-04-28 04:36:00,67.2,42.1,30.02,WNW,285,11.0,21.0,40,0.00,,---,0.00,VWS V14.01,2013-04-28 11:36:00,
2013-04-28 04:41:00,67.3,42.8,30.02,WSW,250,10.0,21.0,41,0.00,,---,0.00,VWS V14.01,2013-04-28 11:41:00,
2013-04-28 04:46:00,67.1,42.6,30.02,WNW,285,11.0,21.0,41,0.00,,---,0.00,VWS V14.01,2013-04-28 11:46:00,
2013-04-28 04:51:00,67.1,42.6,30.02,NW,308,10.0,21.0,41,0.00,,---,0.00,VWS V14.01,2013-04-28 11:51:00,
2013-04-28 04:56:00,67.4,42.9,30.02,WNW,293,12.0,21.0,41,0.00,,---,0.00,VWS V14.01,2013-04-28 11:56:00,
2013-04-28 05:00:00,67.5,43.0,30.03,West,271,4.0,21.0,41,0.00,,---,0.00,VWS V14.01,2013-04-28 12:00:00,
2013-04-28 05:01:00,67.2,42.7,30.03,WNW,299,8.0,14.0,41,0.00,,---,0.00,VWS V14.01,2013-04-28 12:01:00,
2013-04-28 05:06:00,67.2,42.7,30.02,WSW,252,12.0,14.0,41,0.00,,---,0.00,VWS V14.01,2013-04-28 12:06:00,
2013-04-28 05:11:00,67.4,42.9,30.02,West,276,10.0,17.0,41,0.00,,---,0.00,VWS V14.01,2013-04-28 12:11:00,
2013-04-28 05:16:00,67.7,42.5,30.02,NW,305,10.0,17.0,40,0.00,,---,0.00,VWS V14.01,2013-04-28 12:16:00,
2013-04-28 05:21:00,67.3,42.8,30.02,West,270,11.0,17.0,41,0.00,,---,0.00,VWS V14.01,2013-04-28 12:21:00,
2013-04-28 05:26:00,67.1,43.3,30.02,SW,230,10.0,17.0,42,0.00,,---,0.00,VWS V14.01,2013-04-28 12:26:00,
2013-04-28 05:30:00,66.9,43.1,30.02,WSW,242,9.0,17.0,42,0.00,,---,0.00,VWS V14.01,2013-04-28 12:30:00,
2013-04-28 05:31:00,66.8,43.0,30.02,NW,311,11.0,16.0,42,0.00,,---,0.00,VWS V14.01,2013-04-28 12:31:00,
2013-04-28 05:36:00,66.8,43.0,30.02,WNW,284,9.0,17.0,42,0.00,,---,0.00,VWS V14.01,2013-04-28 12:36:00,
2013-04-28 05:41:00,67.0,43.2,30.02,WNW,293,3.0,17.0,42,0.00,,---,0.00,VWS V14.01,2013-04-28 12:41:00,
2013-04-28 05:46:00,66.6,43.4,30.02,WSW,245,4.0,17.0,43,0.00,,---,0.00,VWS V14.01,2013-04-28 12:46:00,
2013-04-28 05:51:00,66.4,43.2,30.02,West,276,10.0,17.0,43,0.00,,---,0.00,VWS V14.01,2013-04-28 12:51:00,
2013-04-28 05:56:00,66.6,43.4,30.03,WNW,286,8.0,17.0,43,0.00,,---,0.00,VWS V14.01,2013-04-28 12:56:00,
2013-04-28 06:00:00,66.4,43.2,30.03,West,262,4.0,17.0,43,0.00,,---,0.00,VWS V14.01,2013-04-28 13:00:00,
2013-04-28 06:01:00,66.3,43.2,30.03,SW,224,6.0,11.0,43,0.00,,---,0.00,VWS V14.01,2013-04-28 13:01:00,
2013-04-28 06:06:00,66.2,43.7,30.03,SW,233,9.0,11.0,44,0.00,,---,0.00,VWS V14.01,2013-04-28 13:06:00,
2013-04-28 06:11:00,66.3,43.2,30.03,West,279,4.0,11.0,43,0.00,,---,0.00,VWS V14.01,2013-04-28 13:11:00,
2013-04-28 06:16:00,66.4,43.2,30.02,West,277,9.0,11.0,43,0.00,,---,0.00,VWS V14.01,2013-04-28 13:16:00,
2013-04-28 06:21:00,66.4,43.8,30.03,SSW,195,2.0,13.0,44,0.00,,---,0.00,VWS V14.01,2013-04-28 13:21:00,
2013-04-28 06:26:00,66.3,43.8,30.03,West,276,1.0,13.0,44,0.00,,---,0.00,VWS V14.01,2013-04-28 13:26:00,
2013-04-28 06:30:00,66.3,43.8,30.03,West,273,5.0,13.0,44,0.00,,---,0.00,VWS V14.01,2013-04-28 13:30:00,
2013-04-28 06:31:00,66.4,43.8,30.03,WNW,296,3.0,8.0,44,0.00,,---,0.00,VWS V14.01,2013-04-28 13:31:00,
2013-04-28 06:36:00,66.6,44.0,30.03,WSW,254,9.0,12.0,44,0.00,,---,0.00,VWS V14.01,2013-04-28 13:36:00,
2013-04-28 06:41:00,66.6,44.0,30.03,West,273,4.0,12.0,44,0.00,,---,0.00,VWS V14.01,2013-04-28 13:41:00,
2013-04-28 06:46:00,66.8,43.6,30.03,WSW,255,3.0,12.0,43,0.00,,---,0.00,VWS V14.01,2013-04-28 13:46:00,
2013-04-28 06:51:00,67.2,44.0,30.03,SSW,209,3.0,12.0,43,0.00,,---,0.00,VWS V14.01,2013-04-28 13:51:00,
2013-04-28 06:56:00,67.6,43.7,30.03,WNW,288,7.0,12.0,42,0.00,,---,0.00,VWS V14.01,2013-04-28 13:56:00,
2013-04-28 07:00:00,67.7,43.8,30.03,SW,232,10.0,12.0,42,0.00,,---,0.00,VWS V14.01,2013-04-28 14:00:00,
2013-04-28 07:01:00,67.9,44.0,30.03,West,274,7.0,10.0,42,0.00,,---,0.00,VWS V14.01,2013-04-28 14:01:00,
2013-04-28 07:06:00,68.1,44.2,30.03,WSW,249,5.0,13.0,42,0.00,,---,0.00,VWS V14.01,2013-04-28 14:06:00,
2013-04-28 07:11:00,68.4,44.4,30.03,West,274,4.0,13.0,42,0.00,,---,0.00,VWS V14.01,2013-04-28 14:11:00,
2013-04-28 07:16:00,68.9,44.2,30.03,WSW,257,6.0,13.0,41,0.00,,---,0.00,VWS V14.01,2013-04-28 14:16:00,
2013-04-28 07:21:00,69.4,44.1,30.04,West,270,8.0,13.0,40,0.00,,---,0.00,VWS V14.01,2013-04-28 14:21:00,
2013-04-28 07:26:00,69.4,44.7,30.03,WSW,242,5.0,16.0,41,0.00,,---,0.00,VWS V14.01,2013-04-28 14:26:00,
2013-04-28 07:30:00,69.5,44.8,30.03,WNW,288,6.0,16.0,41,0.00,,---,0.00,VWS V14.01,2013-04-28 14:30:00,
2013-04-28 07:31:00,69.6,44.9,30.03,West,260,4.0,13.0,41,0.00,,---,0.00,VWS V14.01,2013-04-28 14:31:00,
2013-04-28 07:36:00,69.9,45.2,30.03,WSW,255,6.0,13.0,41,0.00,,---,0.00,VWS V14.01,2013-04-28 14:36:00,
2013-04-28 07:41:00,70.3,45.5,30.03,West,277,3.0,13.0,41,0.00,,---,0.00,VWS V14.01,2013-04-28 14:41:00,
2013-04-28 07:46:00,70.8,45.3,30.03,WNW,302,6.0,13.0,40,0.00,,---,0.00,VWS V14.01,2013-04-28 14:46:00,
2013-04-28 07:51:00,71.2,45.0,30.03,West,271,3.0,13.0,39,0.00,,---,0.00,VWS V14.01,2013-04-28 14:51:00,
2013-04-28 07:56:00,71.7,44.8,30.03,WNW,285,8.0,13.0,38,0.00,,---,0.00,VWS V14.01,2013-04-28 14:56:00,
2013-04-28 08:00:00,72.1,44.4,30.03,WSW,252,8.0,13.0,37,0.00,,---,0.00,VWS V14.01,2013-04-28 15:00:00,
2013-04-28 08:01:00,72.4,45.4,30.03,West,266,5.0,12.0,38,0.00,,---,0.00,VWS V14.01,2013-04-28 15:01:00,
2013-04-28 08:06:00,72.6,44.9,30.03,SW,228,11.0,12.0,37,0.00,,---,0.00,VWS V14.01,2013-04-28 15:06:00,
2013-04-28 08:11:00,73.1,45.3,30.03,SW,221,8.0,13.0,37,0.00,,---,0.00,VWS V14.01,2013-04-28 15:11:00,
2013-04-28 08:16:00,73.5,44.2,30.03,WSW,246,5.0,13.0,35,0.00,,---,0.00,VWS V14.01,2013-04-28 15:16:00,
2013-04-28 08:21:00,74.3,44.1,30.02,SW,228,5.0,13.0,34,0.00,,---,0.00,VWS V14.01,2013-04-28 15:21:00,
2013-04-28 08:26:00,74.9,44.7,30.02,WSW,240,9.0,13.0,34,0.00,,---,0.00,VWS V14.01,2013-04-28 15:26:00,
2013-04-28 08:30:00,75.3,45.0,30.02,SW,233,4.0,13.0,34,0.00,,---,0.00,VWS V14.01,2013-04-28 15:30:00,
2013-04-28 08:31:00,75.8,43.0,30.02,WSW,237,3.0,7.0,31,0.00,,---,0.00,VWS V14.01,2013-04-28 15:31:00,
2013-04-28 08:36:00,77.6,41.0,30.02,WSW,245,4.0,7.0,27,0.00,,---,0.00,VWS V14.01,2013-04-28 15:36:00,
2013-04-28 08:41:00,78.3,39.6,30.02,WSW,253,2.0,7.0,25,0.00,,---,0.00,VWS V14.01,2013-04-28 15:41:00,
2013-04-28 08:46:00,79.6,38.6,30.02,WNW,285,5.0,9.0,23,0.00,,---,0.00,VWS V14.01,2013-04-28 15:46:00,
2013-04-28 08:51:00,80.2,38.0,30.02,West,276,7.0,10.0,22,0.00,,---,0.00,VWS V14.01,2013-04-28 15:51:00,
2013-04-28 08:56:00,80.5,39.3,30.02,WSW,249,3.0,10.0,23,0.00,,---,0.00,VWS V14.01,2013-04-28 15:56:00,
2013-04-28 09:00:00,80.7,38.4,30.02,West,281,4.0,10.0,22,0.00,,---,0.00,VWS V14.01,2013-04-28 16:00:00,
2013-04-28 09:01:00,80.8,38.5,30.02,WNW,285,6.0,13.0,22,0.00,,---,0.00,VWS V14.01,2013-04-28 16:01:00,
2013-04-28 09:06:00,81.0,39.8,30.02,WNW,289,6.0,13.0,23,0.00,,---,0.00,VWS V14.01,2013-04-28 16:06:00,
2013-04-28 09:11:00,81.2,38.8,30.02,WNW,294,2.0,13.0,22,0.00,,---,0.00,VWS V14.01,2013-04-28 16:11:00,
2013-04-28 09:16:00,81.4,37.8,30.01,NNW,330,4.0,13.0,21,0.00,,---,0.00,VWS V14.01,2013-04-28 16:16:00,
2013-04-28 09:21:00,82.1,38.3,30.02,WSW,253,5.0,13.0,21,0.00,,---,0.00,VWS V14.01,2013-04-28 16:21:00,
2013-04-28 09:26:00,82.4,38.6,30.02,WNW,290,4.0,13.0,21,0.00,,---,0.00,VWS V14.01,2013-04-28 16:26:00,
2013-04-28 09:30:00,82.6,39.9,30.01,WSW,246,8.0,13.0,22,0.00,,---,0.00,VWS V14.01,2013-04-28 16:30:00,
2013-04-28 09:31:00,82.6,33.4,30.02,West,280,6.0,9.0,17,0.00,,---,0.00,VWS V14.01,2013-04-28 16:31:00,
2013-04-28 09:36:00,82.8,37.7,30.01,WSW,257,6.0,13.0,20,0.00,,---,0.00,VWS V14.01,2013-04-28 16:36:00,
2013-04-28 09:41:00,83.3,34.0,30.02,WNW,287,2.0,13.0,17,0.00,,---,0.00,VWS V14.01,2013-04-28 16:41:00,
2013-04-28 09:46:00,83.6,35.7,30.02,WSW,242,5.0,13.0,18,0.00,,---,0.00,VWS V14.01,2013-04-28 16:46:00,
2013-04-28 09:51:00,83.9,38.6,30.02,West,273,7.0,13.0,20,0.00,,---,0.00,VWS V14.01,2013-04-28 16:51:00,
2013-04-28 09:56:00,84.4,37.7,30.01,WNW,286,7.0,13.0,19,0.00,,---,0.00,VWS V14.01,2013-04-28 16:56:00,
2013-04-28 10:00:00,84.1,37.4,30.01,West,269,10.0,13.0,19,0.00,,---,0.00,VWS V14.01,2013-04-28 17:00:00,
2013-04-28 10:01:00,84.0,36.0,30.01,WNW,290,7.0,11.0,18,0.00,,---,0.00,VWS V14.01,2013-04-28 17:01:00,
2013-04-28 10:06:00,84.1,37.4,30.01,WNW,293,5.0,12.0,19,0.00,,---,0.00,VWS V14.01,2013-04-28 17:06:00,
2013-04-28 10:11:00,84.7,37.9,30.01,WNW,302,7.0,12.0,19,0.00,,---,0.00,VWS V14.01,2013-04-28 17:11:00,
2013-04-28 10:16:00,85.0,36.8,30.01,WNW,283,6.0,12.0,18,0.00,,---,0.00,VWS V14.01,2013-04-28 17:16:00,
2013-04-28 10:21:00,84.8,38.0,30.02,West,273,4.0,12.0,19,0.00,,---,0.00,VWS V14.01,2013-04-28 17:21:00,
2013-04-28 10:26:00,84.5,36.4,30.02,West,280,7.0,12.0,18,0.00,,---,0.00,VWS V14.01,2013-04-28 17:26:00,
2013-04-28 10:30:00,84.6,39.2,30.01,West,271,4.0,12.0,20,0.00,,---,0.00,VWS V14.01,2013-04-28 17:30:00,
2013-04-28 10:31:00,84.7,37.9,30.02,West,264,9.0,9.0,19,0.00,,---,0.00,VWS V14.01,2013-04-28 17:31:00,
2013-04-28 10:36:00,84.9,36.7,30.01,WSW,238,6.0,12.0,18,0.00,,---,0.00,VWS V14.01,2013-04-28 17:36:00,
2013-04-28 10:41:00,84.7,36.5,30.02,WSW,245,6.0,12.0,18,0.00,,---,0.00,VWS V14.01,2013-04-28 17:41:00,
2013-04-28 10:46:00,84.6,37.8,30.02,WSW,238,5.0,12.0,19,0.00,,---,0.00,VWS V14.01,2013-04-28 17:46:00,
2013-04-28 10:51:00,85.1,39.6,30.02,WNW,290,11.0,12.0,20,0.00,,---,0.00,VWS V14.01,2013-04-28 17:51:00,
2013-04-28 10:56:00,85.1,39.6,30.02,WSW,250,4.0,14.0,20,0.00,,---,0.00,VWS V14.01,2013-04-28 17:56:00,
2013-04-28 11:00:00,85.2,39.7,30.02,WSW,257,5.0,14.0,20,0.00,,---,0.00,VWS V14.01,2013-04-28 18:00:00,
2013-04-28 11:01:00,85.1,40.8,30.01,WSW,250,5.0,12.0,21,0.00,,---,0.00,VWS V14.01,2013-04-28 18:01:00,
2013-04-28 11:06:00,85.2,40.9,30.01,West,266,11.0,13.0,21,0.00,,---,0.00,VWS V14.01,2013-04-28 18:06:00,
2013-04-28 11:11:00,85.2,40.9,30.02,SSW,195,3.0,13.0,21,0.00,,---,0.00,VWS V14.01,2013-04-28 18:11:00,
2013-04-28 11:16:00,85.7,41.3,30.01,SW,233,7.0,13.0,21,0.00,,---,0.00,VWS V14.01,2013-04-28 18:16:00,
2013-04-28 11:21:00,85.4,41.1,30.02,WNW,285,6.0,13.0,21,0.00,,---,0.00,VWS V14.01,2013-04-28 18:21:00,
2013-04-28 11:26:00,85.7,40.1,30.02,NW,309,11.0,13.0,20,0.00,,---,0.00,VWS V14.01,2013-04-28 18:26:00,
2013-04-28 11:30:00,85.4,39.8,30.02,West,281,2.0,13.0,20,0.00,,---,0.00,VWS V14.01,2013-04-28 18:30:00,
2013-04-28 11:31:00,85.5,39.9,30.02,WNW,302,4.0,7.0,20,0.00,,---,0.00,VWS V14.01,2013-04-28 18:31:00,
2013-04-28 11:35:00,86.1,40.4,30.01,West,266,9.0,14.0,20,0.00,,---,0.00,VWS V14.01,2013-04-28 18:35:00,
2013-04-28 11:40:00,85.8,40.1,30.01,West,278,5.0,14.0,20,0.00,,---,0.00,VWS V14.01,2013-04-28 18:40:00,
2013-04-28 11:45:00,85.6,40.0,30.01,WNW,294,3.0,14.0,20,0.00,,---,0.00,VWS V14.01,2013-04-28 18:45:00,
2013-04-28 11:50:00,86.2,40.5,30.01,NW,308,10.0,14.0,20,0.00,,---,0.00,VWS V14.01,2013-04-28 18:50:00,
2013-04-28 11:55:00,86.1,41.6,30.01,NW,305,6.0,14.0,21,0.00,,---,0.00,VWS V14.01,2013-04-28 18:55:00,
2013-04-28 12:00:00,86.4,40.6,30.01,WSW,239,7.0,10.0,20,0.00,,---,0.00,VWS V14.01,2013-04-28 19:00:00,
2013-04-28 12:05:00,86.4,41.9,30.01,WSW,257,4.0,15.0,21,0.00,,---,0.00,VWS V14.01,2013-04-28 19:05:00,
2013-04-28 12:10:00,86.6,42.1,30.00,West,270,8.0,15.0,21,0.00,,---,0.00,VWS V14.01,2013-04-28 19:10:00,
2013-04-28 12:15:00,87.2,41.3,30.00,West,279,9.0,15.0,20,0.00,,---,0.00,VWS V14.01,2013-04-28 19:15:00,
2013-04-28 12:20:00,86.6,40.8,30.00,WSW,257,11.0,15.0,20,0.00,,---,0.00,VWS V14.01,2013-04-28 19:20:00,
2013-04-28 12:25:00,86.6,40.8,30.00,WNW,297,4.0,15.0,20,0.00,,---,0.00,VWS V14.01,2013-04-28 19:25:00,
2013-04-28 12:30:00,87.0,41.1,30.00,WSW,245,11.0,11.0,20,0.00,,---,0.00,VWS V14.01,2013-04-28 19:30:00,
2013-04-28 12:35:00,87.0,41.1,30.00,West,270,4.0,17.0,20,0.00,,---,0.00,VWS V14.01,2013-04-28 19:35:00,
2013-04-28 12:40:00,86.8,41.0,30.00,NW,305,8.0,17.0,20,0.00,,---,0.00,VWS V14.01,2013-04-28 19:40:00,
2013-04-28 12:45:00,87.6,40.3,29.99,North,349,4.0,17.0,19,0.00,,---,0.00,VWS V14.01,2013-04-28 19:45:00,
2013-04-28 12:50:00,87.7,39.0,29.99,NW,325,8.0,17.0,18,0.00,,---,0.00,VWS V14.01,2013-04-28 19:50:00,
2013-04-28 12:55:00,87.6,40.3,29.99,WNW,299,10.0,17.0,19,0.00,,---,0.00,VWS V14.01,2013-04-28 19:55:00,
2013-04-28 13:00:00,87.3,40.0,29.99,NW,306,4.0,15.0,19,0.00,,---,0.00,VWS V14.01,2013-04-28 20:00:00,
2013-04-28 13:05:00,87.2,38.6,29.99,WNW,284,13.0,15.0,18,0.00,,---,0.00,VWS V14.01,2013-04-28 20:05:00,
2013-04-28 13:10:00,87.3,40.0,29.98,WNW,293,7.0,15.0,19,0.00,,---,0.00,VWS V14.01,2013-04-28 20:10:00,
2013-04-28 13:15:00,87.9,39.2,29.98,WNW,297,6.0,15.0,18,0.00,,---,0.00,VWS V14.01,2013-04-28 20:15:00,
2013-04-28 13:20:00,87.4,41.5,29.98,NW,315,7.0,17.0,20,0.00,,---,0.00,VWS V14.01,2013-04-28 20:20:00,
2013-04-28 13:25:00,87.6,37.5,29.98,WNW,300,8.0,17.0,17,0.00,,---,0.00,VWS V14.01,2013-04-28 20:25:00,
2013-04-28 13:30:00,87.9,39.2,29.98,WNW,284,7.0,14.0,18,0.00,,---,0.00,VWS V14.01,2013-04-28 20:30:00,
2013-04-28 13:35:00,88.3,42.2,29.97,NW,323,10.0,16.0,20,0.00,,---,0.00,VWS V14.01,2013-04-28 20:35:00,
2013-04-28 13:40:00,88.3,39.5,29.97,West,276,9.0,16.0,18,0.00,,---,0.00,VWS V14.01,2013-04-28 20:40:00,
2013-04-28 13:45:00,88.5,38.2,29.97,WNW,285,9.0,16.0,17,0.00,,---,0.00,VWS V14.01,2013-04-28 20:45:00,
2013-04-28 13:50:00,88.4,39.5,29.97,West,280,8.0,17.0,18,0.00,,---,0.00,VWS V14.01,2013-04-28 20:50:00,
2013-04-28 13:55:00,88.4,38.1,29.97,WSW,250,6.0,17.0,17,0.00,,---,0.00,VWS V14.01,2013-04-28 20:55:00,
2013-04-28 14:00:00,88.3,36.5,29.97,West,280,7.0,17.0,16,0.00,,---,0.00,VWS V14.01,2013-04-28 21:00:00,
2013-04-28 14:05:00,88.5,39.6,29.96,West,277,7.0,17.0,18,0.00,,---,0.00,VWS V14.01,2013-04-28 21:05:00,
2013-04-28 14:10:00,88.2,36.4,29.96,WNW,300,12.0,17.0,16,0.00,,---,0.00,VWS V14.01,2013-04-28 21:10:00,
2013-04-28 14:15:00,88.7,38.3,29.96,WNW,300,9.0,17.0,17,0.00,,---,0.00,VWS V14.01,2013-04-28 21:15:00,
2013-04-28 14:20:00,88.8,38.4,29.96,NW,315,7.0,17.0,17,0.00,,---,0.00,VWS V14.01,2013-04-28 21:20:00,
2013-04-28 14:25:00,88.4,34.9,29.96,WSW,240,9.0,17.0,15,0.00,,---,0.00,VWS V14.01,2013-04-28 21:25:00,
2013-04-28 14:30:00,88.7,39.8,29.95,WNW,288,10.0,17.0,18,0.00,,---,0.00,VWS V14.01,2013-04-28 21:30:00,
2013-04-28 14:35:00,88.3,36.5,29.95,WSW,257,5.0,18.0,16,0.00,,---,0.00,VWS V14.01,2013-04-28 21:35:00,
2013-04-28 14:40:00,88.5,35.0,29.95,WNW,294,8.0,18.0,15,0.00,,---,0.00,VWS V14.01,2013-04-28 21:40:00,
2013-04-28 14:45:00,88.7,38.3,29.95,WNW,297,8.0,18.0,17,0.00,,---,0.00,VWS V14.01,2013-04-28 21:45:00,
2013-04-28 14:50:00,88.3,38.0,29.95,WNW,302,10.0,18.0,17,0.00,,---,0.00,VWS V14.01,2013-04-28 21:50:00,
2013-04-28 14:55:00,88.1,39.3,29.94,West,276,6.0,18.0,18,0.00,,---,0.00,VWS V14.01,2013-04-28 21:55:00,
2013-04-28 15:00:00,87.8,39.1,29.95,NW,314,9.0,17.0,18,0.00,,---,0.00,VWS V14.01,2013-04-28 22:00:00,
2013-04-28 15:05:00,87.9,39.2,29.94,WNW,284,14.0,17.0,18,0.00,,---,0.00,VWS V14.01,2013-04-28 22:05:00,
2013-04-28 15:10:00,87.9,37.7,29.94,WNW,283,18.0,19.0,17,0.00,,---,0.00,VWS V14.01,2013-04-28 22:10:00,
2013-04-28 15:15:00,87.7,37.5,29.94,West,276,8.0,19.0,17,0.00,,---,0.00,VWS V14.01,2013-04-28 22:15:00,
2013-04-28 15:20:00,88.0,37.8,29.94,NW,312,9.0,19.0,17,0.00,,---,0.00,VWS V14.01,2013-04-28 22:20:00,
2013-04-28 15:25:00,87.9,36.2,29.94,NW,319,7.0,20.0,16,0.00,,---,0.00,VWS V14.01,2013-04-28 22:25:00,
2013-04-28 15:30:00,87.9,37.7,29.93,WNW,302,16.0,16.0,17,0.00,,---,0.00,VWS V14.01,2013-04-28 22:30:00,
2013-04-28 15:35:00,87.5,37.4,29.94,West,274,10.0,21.0,17,0.00,,---,0.00,VWS V14.01,2013-04-28 22:35:00,
2013-04-28 15:40:00,87.2,37.1,29.94,WNW,300,14.0,21.0,17,0.00,,---,0.00,VWS V14.01,2013-04-28 22:40:00,
2013-04-28 15:45:00,86.7,36.7,29.93,WNW,299,19.0,21.0,17,0.00,,---,0.00,VWS V14.01,2013-04-28 22:45:00,
2013-04-28 15:50:00,86.5,36.6,29.94,NW,311,11.0,21.0,17,0.00,,---,0.00,VWS V14.01,2013-04-28 22:50:00,
2013-04-28 15:55:00,86.3,36.4,29.93,WNW,300,19.0,21.0,17,0.00,,---,0.00,VWS V14.01,2013-04-28 22:55:00,
2013-04-28 16:00:00,86.3,36.4,29.93,WNW,283,14.0,19.0,17,0.00,,---,0.00,VWS V14.01,2013-04-28 23:00:00,
2013-04-28 16:05:00,86.0,36.2,29.93,WNW,297,18.0,20.0,17,0.00,,---,0.00,VWS V14.01,2013-04-28 23:05:00,
2013-04-28 16:10:00,85.5,37.2,29.93,WNW,294,13.0,20.0,18,0.00,,---,0.00,VWS V14.01,2013-04-28 23:10:00,
2013-04-28 16:15:00,85.3,35.6,29.92,WNW,302,10.0,20.0,17,0.00,,---,0.00,VWS V14.01,2013-04-28 23:15:00,
2013-04-28 16:20:00,85.6,35.8,29.93,NW,314,14.0,21.0,17,0.00,,---,0.00,VWS V14.01,2013-04-28 23:20:00,
2013-04-28 16:25:00,85.4,32.5,29.92,NW,311,17.0,21.0,15,0.00,,---,0.00,VWS V14.01,2013-04-28 23:25:00,
2013-04-28 16:30:00,85.1,32.3,29.93,NNW,340,12.0,18.0,15,0.00,,---,0.00,VWS V14.01,2013-04-28 23:30:00,
2013-04-28 16:35:00,84.7,33.6,29.92,NW,309,11.0,21.0,16,0.00,,---,0.00,VWS V14.01,2013-04-28 23:35:00,
2013-04-28 16:40:00,84.7,33.6,29.93,WNW,297,11.0,21.0,16,0.00,,---,0.00,VWS V14.01,2013-04-28 23:40:00,
2013-04-28 16:45:00,84.6,33.5,29.93,NW,315,14.0,21.0,16,0.00,,---,0.00,VWS V14.01,2013-04-28 23:45:00,
2013-04-28 16:50:00,84.5,30.1,29.92,NW,309,11.0,21.0,14,0.00,,---,0.00,VWS V14.01,2013-04-28 23:50:00,
2013-04-28 16:55:00,84.2,33.2,29.93,NW,320,9.0,21.0,16,0.00,,---,0.00,VWS V14.01,2013-04-28 23:55:00,
2013-04-28 17:00:00,84.3,30.0,29.92,NW,315,12.0,16.0,14,0.00,,---,0.00,VWS V14.01,2013-04-29 00:00:00,
2013-04-28 17:05:00,84.1,33.1,29.92,WNW,302,11.0,17.0,16,0.00,,---,0.00,VWS V14.01,2013-04-29 00:05:00,
2013-04-28 17:10:00,83.8,34.4,29.93,NW,307,10.0,17.0,17,0.00,,---,0.00,VWS V14.01,2013-04-29 00:10:00,
2013-04-28 17:15:00,83.4,34.1,29.92,NW,316,12.0,19.0,17,0.00,,---,0.00,VWS V14.01,2013-04-29 00:15:00,
2013-04-28 17:20:00,83.5,34.1,29.92,NW,319,8.0,19.0,17,0.00,,---,0.00,VWS V14.01,2013-04-29 00:20:00,
2013-04-28 17:25:00,83.2,33.9,29.92,NW,308,13.0,20.0,17,0.00,,---,0.00,VWS V14.01,2013-04-29 00:25:00,
2013-04-28 17:30:00,82.9,32.2,29.93,WNW,286,14.0,20.0,16,0.00,,---,0.00,VWS V14.01,2013-04-29 00:30:00,
2013-04-28 17:35:00,82.8,33.6,29.93,NW,308,17.0,20.0,17,0.00,,---,0.00,VWS V14.01,2013-04-29 00:35:00,
2013-04-28 17:40:00,82.4,34.7,29.93,WNW,302,10.0,20.0,18,0.00,,---,0.00,VWS V14.01,2013-04-29 00:40:00,
2013-04-28 17:45:00,82.3,34.6,29.93,WNW,302,13.0,20.0,18,0.00,,---,0.00,VWS V14.01,2013-04-29 00:45:00,
2013-04-28 17:50:00,81.9,36.9,29.93,NW,316,7.0,20.0,20,0.00,,---,0.00,VWS V14.01,2013-04-29 00:50:00,
2013-04-28 17:55:00,81.8,35.5,29.93,NW,315,10.0,20.0,19,0.00,,---,0.00,VWS V14.01,2013-04-29 00:55:00,
2013-04-28 18:00:00,81.6,36.7,29.93,WNW,293,8.0,12.0,20,0.00,,---,0.00,VWS V14.01,2013-04-29 01:00:00,
2013-04-28 18:05:00,81.4,36.5,29.93,West,263,11.0,14.0,20,0.00,,---,0.00,VWS V14.01,2013-04-29 01:05:00,
2013-04-28 18:10:00,81.1,36.3,29.93,West,281,12.0,15.0,20,0.00,,---,0.00,VWS V14.01,2013-04-29 01:10:00,
2013-04-28 18:15:00,80.9,37.3,29.93,WSW,245,10.0,15.0,21,0.00,,---,0.00,VWS V14.01,2013-04-29 01:15:00,
2013-04-28 18:20:00,80.7,37.2,29.93,WSW,257,5.0,15.0,21,0.00,,---,0.00,VWS V14.01,2013-04-29 01:20:00,
2013-04-28 18:25:00,80.3,36.8,29.93,WSW,238,9.0,15.0,21,0.00,,---,0.00,VWS V14.01,2013-04-29 01:25:00,
2013-04-28 18:30:00,79.9,37.7,29.93,WNW,283,7.0,10.0,22,0.00,,---,0.00,VWS V14.01,2013-04-29 01:30:00,
2013-04-28 18:35:00,79.6,37.5,29.93,West,263,10.0,14.0,22,0.00,,---,0.00,VWS V14.01,2013-04-29 01:35:00,
2013-04-28 18:40:00,79.2,37.1,29.93,WSW,252,5.0,14.0,22,0.00,,---,0.00,VWS V14.01,2013-04-29 01:40:00,
2013-04-28 18:45:00,78.9,38.0,29.93,West,267,5.0,14.0,23,0.00,,---,0.00,VWS V14.01,2013-04-29 01:45:00,
2013-04-28 18:50:00,78.5,37.7,29.93,West,269,5.0,14.0,23,0.00,,---,0.00,VWS V14.01,2013-04-29 01:50:00,
2013-04-28 18:55:00,78.1,37.3,29.93,West,269,6.0,14.0,23,0.00,,---,0.00,VWS V14.01,2013-04-29 01:55:00,
2013-04-28 19:00:00,77.8,37.1,29.93,WSW,257,11.0,11.0,23,0.00,,---,0.00,VWS V14.01,2013-04-29 02:00:00,
2013-04-28 19:05:00,77.4,37.8,29.93,WSW,257,7.0,12.0,24,0.00,,---,0.00,VWS V14.01,2013-04-29 02:05:00,
2013-04-28 19:10:00,76.9,37.4,29.93,WSW,245,7.0,14.0,24,0.00,,---,0.00,VWS V14.01,2013-04-29 02:10:00,
2013-04-28 19:15:00,76.4,37.0,29.93,NW,312,6.0,15.0,24,0.00,,---,0.00,VWS V14.01,2013-04-29 02:15:00,
2013-04-28 19:20:00,76.0,37.7,29.93,NW,318,13.0,16.0,25,0.00,,---,0.00,VWS V14.01,2013-04-29 02:20:00,
2013-04-28 19:25:00,75.9,37.6,29.92,NW,308,13.0,19.0,25,0.00,,---,0.00,VWS V14.01,2013-04-29 02:25:00,
2013-04-28 19:30:00,75.7,38.4,29.92,NW,305,11.0,17.0,26,0.00,,---,0.00,VWS V14.01,2013-04-29 02:30:00,
2013-04-28 19:35:00,75.4,38.2,29.93,NW,315,10.0,17.0,26,0.00,,---,0.00,VWS V14.01,2013-04-29 02:35:00,
2013-04-28 19:40:00,75.2,39.0,29.93,West,274,7.0,17.0,27,0.00,,---,0.00,VWS V14.01,2013-04-29 02:40:00,
2013-04-28 19:45:00,74.6,38.5,29.93,WNW,285,8.0,17.0,27,0.00,,---,0.00,VWS V14.01,2013-04-29 02:45:00,
2013-04-28 19:50:00,74.3,39.1,29.93,WNW,296,5.0,17.0,28,0.00,,---,0.00,VWS V14.01,2013-04-29 02:50:00,
2013-04-28 19:55:00,73.9,38.8,29.93,NW,322,6.0,17.0,28,0.00,,---,0.00,VWS V14.01,2013-04-29 02:55:00,
2013-04-28 20:00:00,73.6,38.5,29.93,WNW,295,10.0,10.0,28,0.00,,---,0.00,VWS V14.01,2013-04-29 03:00:00,
2013-04-28 20:05:00,73.5,38.4,29.93,West,280,7.0,13.0,28,0.00,,---,0.00,VWS V14.01,2013-04-29 03:05:00,
2013-04-28 20:10:00,73.2,38.2,29.93,West,277,8.0,13.0,28,0.00,,---,0.00,VWS V14.01,2013-04-29 03:10:00,
2013-04-28 20:15:00,73.1,38.1,29.94,West,266,4.0,14.0,28,0.00,,---,0.00,VWS V14.01,2013-04-29 03:15:00,
2013-04-28 20:20:00,72.9,37.9,29.94,WSW,249,5.0,14.0,28,0.00,,---,0.00,VWS V14.01,2013-04-29 03:20:00,
2013-04-28 20:25:00,72.5,37.6,29.94,West,264,3.0,14.0,28,0.00,,---,0.00,VWS V14.01,2013-04-29 03:25:00,
2013-04-28 20:30:00,72.4,38.4,29.94,WSW,252,6.0,9.0,29,0.00,,---,0.00,VWS V14.01,2013-04-29 03:30:00,
2013-04-28 20:35:00,72.5,37.6,29.94,West,273,7.0,12.0,28,0.00,,---,0.00,VWS V14.01,2013-04-29 03:35:00,
2013-04-28 20:40:00,72.5,37.6,29.94,West,277,3.0,12.0,28,0.00,,---,0.00,VWS V14.01,2013-04-29 03:40:00,
2013-04-28 20:45:00,72.5,37.6,29.94,WSW,238,11.0,12.0,28,0.00,,---,0.00,VWS V14.01,2013-04-29 03:45:00,
2013-04-28 20:50:00,72.7,37.8,29.95,WNW,288,6.0,14.0,28,0.00,,---,0.00,VWS V14.01,2013-04-29 03:50:00,
2013-04-28 20:55:00,72.5,37.6,29.95,WSW,246,3.0,14.0,28,0.00,,---,0.00,VWS V14.01,2013-04-29 03:55:00,
2013-04-28 21:00:00,72.4,36.6,29.95,West,269,6.0,8.0,27,0.00,,---,0.00,VWS V14.01,2013-04-29 04:00:00,
2013-04-28 21:01:00,72.4,36.6,29.95,West,260,5.0,8.0,27,0.00,,---,0.00,VWS V14.01,2013-04-29 04:01:00,
2013-04-28 21:06:00,72.2,37.3,29.95,West,269,5.0,9.0,28,0.00,,---,0.00,VWS V14.01,2013-04-29 04:06:00,
2013-04-28 21:11:00,72.3,36.5,29.95,West,276,5.0,10.0,27,0.00,,---,0.00,VWS V14.01,2013-04-29 04:11:00,
2013-04-28 21:16:00,72.1,36.3,29.95,West,262,6.0,10.0,27,0.00,,---,0.00,VWS V14.01,2013-04-29 04:16:00,
2013-04-28 21:21:00,72.0,36.2,29.95,West,281,4.0,10.0,27,0.00,,---,0.00,VWS V14.01,2013-04-29 04:21:00,
2013-04-28 21:26:00,71.8,36.0,29.95,WSW,252,6.0,10.0,27,0.00,,---,0.00,VWS V14.01,2013-04-29 04:26:00,
2013-04-28 21:30:00,71.8,36.0,29.95,West,260,5.0,10.0,27,0.00,,---,0.00,VWS V14.01,2013-04-29 04:30:00,
2013-04-28 21:31:00,71.6,35.9,29.95,WSW,240,4.0,9.0,27,0.00,,---,0.00,VWS V14.01,2013-04-29 04:31:00,
2013-04-28 21:36:00,71.3,35.6,29.95,NW,309,6.0,9.0,27,0.00,,---,0.00,VWS V14.01,2013-04-29 04:36:00,
2013-04-28 21:41:00,71.6,35.9,29.95,West,269,3.0,11.0,27,0.00,,---,0.00,VWS V14.01,2013-04-29 04:41:00,
2013-04-28 21:46:00,71.8,36.0,29.95,West,266,2.0,12.0,27,0.00,,---,0.00,VWS V14.01,2013-04-29 04:46:00,
2013-04-28 21:51:00,71.6,35.9,29.95,WSW,242,4.0,12.0,27,0.00,,---,0.00,VWS V14.01,2013-04-29 04:51:00,
2013-04-28 21:56:00,71.3,34.7,29.95,WSW,252,3.0,12.0,26,0.00,,---,0.00,VWS V14.01,2013-04-29 04:56:00,
2013-04-28 22:00:00,71.0,35.4,29.95,West,270,3.0,12.0,27,0.00,,---,0.00,VWS V14.01,2013-04-29 05:00:00,
2013-04-28 22:01:00,70.8,35.2,29.96,West,280,5.0,9.0,27,0.00,,---,0.00,VWS V14.01,2013-04-29 05:01:00,
2013-04-28 22:06:00,71.3,34.7,29.95,WSW,246,3.0,10.0,26,0.00,,---,0.00,VWS V14.01,2013-04-29 05:06:00,
2013-04-28 22:11:00,71.4,33.8,29.95,WNW,299,3.0,10.0,25,0.00,,---,0.00,VWS V14.01,2013-04-29 05:11:00,
2013-04-28 22:16:00,70.8,33.3,29.95,WNW,298,5.0,10.0,25,0.00,,---,0.00,VWS V14.01,2013-04-29 05:16:00,
2013-04-28 22:21:00,70.9,33.4,29.95,WNW,285,3.0,10.0,25,0.00,,---,0.00,VWS V14.01,2013-04-29 05:21:00,
2013-04-28 22:26:00,70.9,32.3,29.95,West,271,3.0,10.0,24,0.00,,---,0.00,VWS V14.01,2013-04-29 05:26:00,
2013-04-28 22:30:00,70.9,32.3,29.95,WNW,284,9.0,10.0,24,0.00,,---,0.00,VWS V14.01,2013-04-29 05:30:00,
2013-04-28 22:31:00,71.1,31.5,29.95,WNW,283,5.0,11.0,23,0.00,,---,0.00,VWS V14.01,2013-04-29 05:31:00,
2013-04-28 22:36:00,70.9,30.2,29.95,WNW,286,5.0,11.0,22,0.00,,---,0.00,VWS V14.01,2013-04-29 05:36:00,
2013-04-28 22:41:00,70.4,28.6,29.95,WNW,283,3.0,11.0,21,0.00,,---,0.00,VWS V14.01,2013-04-29 05:41:00,
2013-04-28 22:46:00,70.4,27.5,29.95,NW,308,2.0,11.0,20,0.00,,---,0.00,VWS V14.01,2013-04-29 05:46:00,
2013-04-28 22:51:00,70.6,27.6,29.95,WSW,249,6.0,11.0,20,0.00,,---,0.00,VWS V14.01,2013-04-29 05:51:00,
2013-04-28 22:56:00,70.6,28.8,29.95,WNW,293,7.0,12.0,21,0.00,,---,0.00,VWS V14.01,2013-04-29 05:56:00,
2013-04-28 23:00:00,70.8,29.0,29.95,West,273,4.0,12.0,21,0.00,,---,0.00,VWS V14.01,2013-04-29 06:00:00,
2013-04-28 23:01:00,70.9,29.0,29.95,WNW,299,5.0,11.0,21,0.00,,---,0.00,VWS V14.01,2013-04-29 06:01:00,
2013-04-28 23:06:00,70.7,28.9,29.95,WNW,295,3.0,15.0,21,0.00,,---,0.00,VWS V14.01,2013-04-29 06:06:00,
2013-04-28 23:11:00,70.5,29.9,29.95,West,259,3.0,15.0,22,0.00,,---,0.00,VWS V14.01,2013-04-29 06:11:00,
2013-04-28 23:16:00,70.3,29.7,29.95,WSW,248,5.0,15.0,22,0.00,,---,0.00,VWS V14.01,2013-04-29 06:16:00,
2013-04-28 23:21:00,70.2,30.7,29.95,SW,218,6.0,15.0,23,0.00,,---,0.00,VWS V14.01,2013-04-29 06:21:00,
2013-04-28 23:26:00,70.2,31.8,29.95,West,262,5.0,15.0,24,0.00,,---,0.00,VWS V14.01,2013-04-29 06:26:00,
2013-04-28 23:30:00,70.2,31.8,29.95,WNW,288,3.0,15.0,24,0.00,,---,0.00,VWS V14.01,2013-04-29 06:30:00,
2013-04-28 23:31:00,70.1,31.7,29.94,WNW,284,3.0,8.0,24,0.00,,---,0.00,VWS V14.01,2013-04-29 06:31:00,
2013-04-28 23:36:00,70.4,32.9,29.95,WNW,300,4.0,10.0,25,0.00,,---,0.00,VWS V14.01,2013-04-29 06:36:00,
2013-04-28 23:41:00,70.4,32.9,29.95,WNW,295,10.0,15.0,25,0.00,,---,0.00,VWS V14.01,2013-04-29 06:41:00,
2013-04-28 23:46:00,70.2,33.7,29.95,WSW,257,6.0,15.0,26,0.00,,---,0.00,VWS V14.01,2013-04-29 06:46:00,
2013-04-28 23:51:00,70.4,32.9,29.94,West,264,8.0,15.0,25,0.00,,---,0.00,VWS V14.01,2013-04-29 06:51:00,
2013-04-28 23:56:00,70.5,34.0,29.94,West,269,6.0,15.0,26,0.00,,---,0.00,VWS V14.01,2013-04-29 06:56:00,